Location: North Evanston
(42.0634°N, 87.6976°W)
Time: 14:58:17
(UTC+00:00)

Vanguard 2 - Pass Details

Date: 14 May 2026
Orbit: 553 x 2894 km, 32.9° (Epoch: 8 June)

Event Time Altitude Azimuth Distance (km) Brightness Sun altitude
Rises 10:10:08 0° 258° (WSW) 6,723 - -4.3°
Exits shadow 10:10:52 - 258° (WSW) 6,561 11.6 -4.1°
Reaches altitude 10° 10:14:45 10° 255° (WSW) 5,700 11.3 -3.5°
Maximum altitude 10:31:28 59° 183° (S) 2,740 10.2 -0.8°
Drops below altitude 10° 10:43:23 10° 107° (ESE) 4,193 12.1 1.2°
Sets 10:46:13 0° 104° (ESE) 4,911 12.6 1.7°
